Location: Bruch
(44.2051°N, 0.4120°E)
Time: 11:37:11
(UTC+00:00)

Cosmos 2228 Rocket - Pass Details

Date: 29 November 2020
Orbit: 618 x 652 km, 82.5° (Epoch: 25 January)

Event Time Altitude Azimuth Distance (km) Brightness Sun altitude
Rises 05:43:39 0° 351° (N) 2,921 6.3 -15.4°
Reaches altitude 10° 05:45:54 10° 351° (N) 2,005 5.4 -15.0°
Maximum altitude 05:50:21 87° 263° (W) 628 3.0 -14.2°
Drops below altitude 10° 05:54:44 10° 174° (S) 1,978 5.9 -13.5°
Sets 05:56:56 0° 174° (S) 2,878 6.8 -13.1°
